Winfield, KS

2:49 PM CDT on April 30, 2017 (GMT -0500)
Strother

Weather History for KWLD - August, 2014

Change the Weather History Date:

Wednesday, August 27, 2014

  Actual Average Record
Temperature  
Mean Temperature 82 °F -  
Max Temperature 93 °F 90 °F 102 °F (1998)
Min Temperature 70 °F 67 °F 57 °F (2010)
Cooling Degree Days 16    
Growing Degree Days 32 (Base 50)    
Moisture  
Dew Point 66 °F    
Average Humidity 60    
Maximum Humidity 87    
Minimum Humidity 38    
Precipitation  
Precipitation 0.00 in - - ()
Sea Level Pressure  
Sea Level Pressure 30.02 in    
Wind  
Wind Speed 6 mph (SSE)    
Max Wind Speed 14 mph    
Max Gust Speed 20 mph    
Visibility 10 miles    
Events      
Averages and records for this station are not official NWS values.
T = Trace of Precipitation, MM = Missing Value Source: NWS Daily Summary

Daily Weather History Graph

Daily Weather History Graph

Search for Another Location

Airport or City:

Trip Planner

Search our weather history database for the weather conditions in past years. The results will help you decide how hot, cold, wet, or windy it might be!

Date:

Astronomy

Aug. 27, 2014 Rise Set
Actual Time 6:54 AM CDT 8:03 PM CDT
Civil Twilight 6:27 AM CDT 8:30 PM CDT
Nautical Twilight 5:55 AM CDT 9:02 PM CDT
Astronomical Twilight 5:22 AM CDT 9:35 PM CDT
Moon 8:48 AM CDT (8/27) 9:00 PM CDT (8/27)
Length of Visible Light 14h 02m
Length of Day
13h 09m
Waxing Crescent, 4% of the Moon is Illuminated
Aug 27
Waxing Crescent
Sep 2
First Quarter
Sep 8
Full
Sep 15
Last Quarter
Sep 24
New

Hourly Weather History & Observations

Time (CDT) Temp. Heat Index Dew Point Humidity Pressure Visibility Wind Dir Wind Speed Gust Speed Precip Events Conditions
12:54 AM 79.0 °F - 68.0 °F 69% 30.03 in 10.0 mi SSE 5.8 mph - N/A   Clear
1:54 AM 75.9 °F - 68.0 °F 76% 30.04 in 10.0 mi SSW 3.5 mph - N/A   Clear
2:54 AM 75.9 °F - 66.9 °F 74% 30.04 in 10.0 mi South 3.5 mph - N/A   Clear
3:54 AM 75.9 °F - 66.9 °F 74% 30.03 in 10.0 mi SSE 3.5 mph - N/A   Clear
4:54 AM 73.0 °F - 66.0 °F 79% 30.02 in 10.0 mi South 8.1 mph - N/A   Clear
5:54 AM 73.0 °F - 66.9 °F 81% 30.04 in 10.0 mi SSW 5.8 mph - N/A   Clear
6:54 AM 70.0 °F - 66.0 °F 87% 30.06 in 10.0 mi South 3.5 mph - N/A   Clear
7:54 AM 73.9 °F - 68.0 °F 82% 30.09 in 10.0 mi SSW 3.5 mph - N/A   Clear
8:54 AM 79.0 °F - 68.0 °F 69% 30.10 in 10.0 mi SSW 5.8 mph - N/A   Clear
10:54 AM 86.0 °F 89.4 °F 68.0 °F 55% 30.09 in 10.0 mi Calm Calm - N/A   Clear
11:54 AM 89.1 °F 92.9 °F 68.0 °F 50% 30.08 in 10.0 mi Variable 4.6 mph - N/A   Clear
12:54 PM 90.0 °F 92.8 °F 66.9 °F 46% 30.06 in 10.0 mi SW 5.8 mph - N/A   Clear
2:54 PM 93.0 °F 95.0 °F 64.9 °F 39% 30.03 in 10.0 mi Variable 6.9 mph - N/A   Clear
3:54 PM 93.0 °F 95.0 °F 64.9 °F 39% 30.00 in 10.0 mi SSE 8.1 mph - N/A   Clear
4:54 PM 93.0 °F 95.0 °F 64.9 °F 39% 29.98 in 10.0 mi SSE 13.8 mph - N/A   Clear
5:54 PM 93.0 °F 94.6 °F 64.0 °F 38% 29.95 in 10.0 mi SSE 11.5 mph 19.6 mph N/A   Clear
6:54 PM 90.0 °F 91.7 °F 64.9 °F 43% 29.95 in 10.0 mi SSE 8.1 mph - N/A   Clear
7:54 PM 88.0 °F 90.3 °F 66.0 °F 48% 29.95 in 10.0 mi ESE 5.8 mph - N/A   Clear
8:54 PM 84.9 °F 87.1 °F 66.0 °F 53% 29.97 in 10.0 mi SE 8.1 mph - N/A   Clear
9:54 PM 82.9 °F 85.0 °F 66.0 °F 56% 29.98 in 10.0 mi SE 9.2 mph - N/A   Clear
10:54 PM 80.1 °F 82.1 °F 66.0 °F 62% 29.97 in 10.0 mi SE 6.9 mph - N/A   Clear